EN

Hourly Weather Lachowice

Today, 25 July, Sunday

Time Temperature Precipitation Wind Pressure Humidity
00:00 +18°C° 0 mm 2 mps 722 mmHg 70%
01:00 +17°C° 0 mm 2 mps 722 mmHg 70%
02:00 +17°C° 0 mm 2 mps 722 mmHg 70%
03:00 +17°C° 0 mm 2 mps 722 mmHg 70%
04:00 +16°C° 0 mm 2 mps 722 mmHg 69%
05:00 +18°C° 0 mm 2 mps 722 mmHg 67%
06:00 +21°C° 0 mm 1 mps 722 mmHg 64%
07:00 +23°C° 0 mm 1 mps 723 mmHg 62%
08:00 +24°C° 0 mm 2 mps 723 mmHg 57%
09:00 +25°C° 0 mm 2 mps 723 mmHg 52%
10:00 +27°C° 0 mm 2 mps 723 mmHg 48%
11:00 +25°C° 0.2 mm 2 mps 723 mmHg 60%
12:00 +22°C° 0.2 mm 1 mps 723 mmHg 72%
13:00 +20°C° 0 mm 1 mps 723 mmHg 86%
14:00 +21°C° 0 mm 1 mps 723 mmHg 79%
15:00 +22°C° 0 mm 1 mps 723 mmHg 73%
16:00 +23°C° 0 mm 1 mps 723 mmHg 67%
17:00 +22°C° 0 mm 1 mps 722 mmHg 72%
18:00 +22°C° 0 mm 1 mps 722 mmHg 76%
19:00 +20°C° 0 mm 2 mps 721 mmHg 81%
20:00 +19°C° 0.2 mm 2 mps 721 mmHg 84%
21:00 +18°C° 0.2 mm 2 mps 721 mmHg 86%
22:00 +17°C° 0.2 mm 2 mps 721 mmHg 89%
23:00 +18°C° 0.6 mm 2 mps 721 mmHg 90%

Tomorrow, 26 July, Monday

Time Temperature Precipitation Wind Pressure Humidity
00:00 +18°C° 0.6 mm 2 mps 721 mmHg 92%
01:00 +18°C° 0.6 mm 2 mps 721 mmHg 93%
02:00 +17°C° 0.5 mm 2 mps 721 mmHg 93%
03:00 +18°C° 0.5 mm 1 mps 721 mmHg 94%
04:00 +18°C° 0.5 mm 1 mps 720 mmHg 94%
05:00 +19°C° 0.1 mm 1 mps 721 mmHg 92%
06:00 +20°C° 0.1 mm 1 mps 721 mmHg 89%
07:00 +21°C° 0.1 mm 1 mps 721 mmHg 86%
08:00 +23°C° 0.1 mm 2 mps 721 mmHg 79%
09:00 +24°C° 0.1 mm 2 mps 722 mmHg 72%
10:00 +26°C° 0.1 mm 2 mps 722 mmHg 65%
11:00 +27°C° 0.3 mm 3 mps 722 mmHg 61%
12:00 +28°C° 0.3 mm 3 mps 722 mmHg 57%
13:00 +29°C° 0.3 mm 3 mps 722 mmHg 52%
14:00 +29°C° 0.1 mm 3 mps 722 mmHg 56%
15:00 +28°C° 0.1 mm 2 mps 722 mmHg 59%
16:00 +28°C° 0.1 mm 1 mps 722 mmHg 63%
17:00 +26°C° 0.1 mm 1 mps 722 mmHg 69%
18:00 +25°C° 0.1 mm 1 mps 722 mmHg 74%
19:00 +24°C° 0.1 mm 1 mps 721 mmHg 80%
20:00 +23°C° 0 mm 1 mps 721 mmHg 82%
21:00 +22°C° 0 mm 1 mps 722 mmHg 84%
22:00 +21°C° 0 mm 1 mps 722 mmHg 87%
23:00 +20°C° 0.1 mm 1 mps 721 mmHg 87%

Day after tomorrow, 27 July, Tuesday

Time Temperature Precipitation Wind Pressure Humidity
00:00 +20°C° 0.1 mm 1 mps 721 mmHg 88%
01:00 +20°C° 0.1 mm 1 mps 721 mmHg 88%
02:00 +20°C° 0.2 mm 1 mps 721 mmHg 90%
03:00 +18°C° 0.2 mm 2 mps 721 mmHg 92%
04:00 +18°C° 0.2 mm 2 mps 721 mmHg 94%
05:00 +19°C° 0 mm 2 mps 721 mmHg 91%
06:00 +20°C° 0 mm 2 mps 722 mmHg 89%
07:00 +21°C° 0 mm 2 mps 722 mmHg 87%
08:00 +22°C° 0.1 mm 3 mps 723 mmHg 81%
09:00 +24°C° 0.1 mm 3 mps 723 mmHg 75%
10:00 +25°C° 0.1 mm 3 mps 723 mmHg 70%
11:00 +26°C° 0.1 mm 3 mps 723 mmHg 66%
12:00 +27°C° 0.1 mm 3 mps 723 mmHg 63%
13:00 +27°C° 0.1 mm 3 mps 724 mmHg 59%
14:00 +27°C° 0.2 mm 3 mps 724 mmHg 61%
15:00 +27°C° 0.2 mm 2 mps 724 mmHg 62%
16:00 +27°C° 0.2 mm 2 mps 724 mmHg 64%
17:00 +25°C° 0.6 mm 2 mps 723 mmHg 70%
18:00 +24°C° 0.6 mm 1 mps 723 mmHg 77%
19:00 +22°C° 0.6 mm 1 mps 723 mmHg 83%
20:00 +22°C° 0 mm 1 mps 723 mmHg 85%
21:00 +21°C° 0 mm 1 mps 724 mmHg 87%
22:00 +20°C° 0 mm 1 mps 724 mmHg 89%
23:00 +20°C° 0 mm 1 mps 724 mmHg 88%

28 July, Wednesday

Time Temperature Precipitation Wind Pressure Humidity
00:00 +19°C° 0 mm 1 mps 724 mmHg 88%
01:00 +19°C° 0 mm 1 mps 724 mmHg 88%
02:00 +19°C° 0 mm 1 mps 724 mmHg 88%
03:00 +19°C° 0 mm 1 mps 724 mmHg 88%
04:00 +19°C° 0 mm 1 mps 724 mmHg 88%
05:00 +20°C° 0 mm 1 mps 724 mmHg 84%
06:00 +22°C° 0 mm 1 mps 724 mmHg 80%
07:00 +23°C° 0 mm 1 mps 724 mmHg 76%
08:00 +25°C° 0 mm 1 mps 724 mmHg 68%
09:00 +27°C° 0 mm 1 mps 723 mmHg 60%
10:00 +28°C° 0 mm 1 mps 723 mmHg 52%
11:00 +28°C° 0.1 mm 1 mps 723 mmHg 54%
12:00 +28°C° 0.1 mm 2 mps 723 mmHg 55%
13:00 +28°C° 0.1 mm 2 mps 723 mmHg 57%
14:00 +27°C° 0.5 mm 1 mps 722 mmHg 63%
15:00 +26°C° 0.5 mm 1 mps 722 mmHg 69%
16:00 +25°C° 0.5 mm 1 mps 722 mmHg 75%
17:00 +24°C° 0.2 mm 1 mps 722 mmHg 79%
18:00 +23°C° 0.2 mm 1 mps 722 mmHg 83%
19:00 +22°C° 0.2 mm 1 mps 721 mmHg 87%
20:00 +22°C° 0.8 mm 1 mps 722 mmHg 90%
21:00 +21°C° 0.8 mm 1 mps 722 mmHg 92%
22:00 +19°C° 0.8 mm 2 mps 722 mmHg 95%
23:00 +19°C° 0.6 mm 2 mps 723 mmHg 96%

29 July, Thursday

Time Temperature Precipitation Wind Pressure Humidity
00:00 +18°C° 0.6 mm 2 mps 723 mmHg 97%
01:00 +19°C° 0.6 mm 1 mps 723 mmHg 98%
02:00 +18°C° 0 mm 1 mps 723 mmHg 97%
03:00 +18°C° 0 mm 1 mps 723 mmHg 97%
04:00 +18°C° 0 mm 1 mps 723 mmHg 96%
05:00 +19°C° 0 mm 1 mps 724 mmHg 94%
06:00 +19°C° 0 mm 1 mps 724 mmHg 92%
07:00 +20°C° 0 mm 1 mps 724 mmHg 89%
08:00 +19°C° 0 mm 0 mps 724 mmHg 84%
09:00 +20°C° 0 mm 0 mps 724 mmHg 79%
10:00 +21°C° 0 mm 0 mps 724 mmHg 73%
11:00 +23°C° 0 mm 0 mps 724 mmHg 66%
12:00 +26°C° 0 mm 1 mps 724 mmHg 59%
13:00 +28°C° 0 mm 1 mps 724 mmHg 52%
14:00 +28°C° 0 mm 1 mps 724 mmHg 51%
15:00 +28°C° 0 mm 1 mps 723 mmHg 49%
16:00 +28°C° 0 mm 1 mps 723 mmHg 48%
17:00 +26°C° 0 mm 1 mps 723 mmHg 57%
18:00 +25°C° 0 mm 1 mps 722 mmHg 66%
19:00 +21°C° 0 mm 0 mps 722 mmHg 74%
20:00 +22°C° 0 mm 1 mps 722 mmHg 76%
21:00 +21°C° 0 mm 1 mps 722 mmHg 78%
22:00 +20°C° 0 mm 1 mps 721 mmHg 79%
23:00 +20°C° 0 mm 1 mps 721 mmHg 79%

30 July, Friday

Time Temperature Precipitation Wind Pressure Humidity
00:00 +20°C° 0 mm 1 mps 721 mmHg 79%
01:00 +19°C° 0 mm 1 mps 721 mmHg 79%
02:00 +19°C° 0 mm 1 mps 720 mmHg 77%
03:00 +19°C° 0 mm 1 mps 720 mmHg 75%
04:00 +19°C° 0 mm 1 mps 720 mmHg 73%
05:00 +21°C° 0 mm 1 mps 720 mmHg 70%
06:00 +22°C° 0 mm 1 mps 720 mmHg 66%
07:00 +24°C° 0 mm 1 mps 720 mmHg 63%
08:00 +25°C° 0 mm 1 mps 720 mmHg 59%
09:00 +27°C° 0 mm 1 mps 720 mmHg 54%
10:00 +28°C° 0 mm 2 mps 720 mmHg 49%
11:00 +29°C° 0 mm 2 mps 720 mmHg 49%
12:00 +29°C° 0 mm 2 mps 720 mmHg 49%
13:00 +30°C° 0 mm 2 mps 719 mmHg 49%
14:00 +29°C° 0.2 mm 2 mps 719 mmHg 54%
15:00 +28°C° 0.2 mm 2 mps 719 mmHg 59%
16:00 +27°C° 0.2 mm 2 mps 719 mmHg 64%
17:00 +26°C° 0.5 mm 2 mps 719 mmHg 70%
18:00 +24°C° 0.5 mm 2 mps 719 mmHg 77%
19:00 +23°C° 0.5 mm 2 mps 719 mmHg 84%
20:00 +22°C° 0 mm 1 mps 719 mmHg 86%
21:00 +21°C° 0 mm 1 mps 719 mmHg 89%
22:00 +20°C° 0 mm 1 mps 720 mmHg 91%
23:00 +20°C° 0 mm 1 mps 720 mmHg 92%
Show more